Wind_Speed
33 34 34 33 33 32 32 33 33 33 32 32 32 32 32 32 31 31 30 30 30 30 30 30 30 29 28 27 27 27 27 27 27 27 27 27 27 27 26 26 26 25 25
34 35 36 36 35 35 35 35 35 35 35 35 35 35 35 35 34 34 33 33 33 32 32 32 32 32 32 31 30 30 30 29 29 29 29 29 29 29 28 28 28 28 28
36 37 37 38 38 37 37 38 38 38 38 38 38 37 38 38 37 36 36 36 36 36 36 36 36 35 35 34 34 33 33 32 32 32 32 32 31 31 31 31 31 30 30
39 39 39 39 40 40 40 40 40 40 40 39 39 39 39 40 40 39 39 39 39 39 39 38 39 39 38 38 37 36 36 35 35 35 35 35 35 34 33 33 33 32 32
40 41 41 41 42 42 42 43 43 42 42 42 42 42 42 43 42 42 42 42 42 41 41 41 40 40 40 40 40 40 39 39 39 38 38 38 37 37 37 36 35 34 34
42 42 43 44 44 45 44 45 45 45 44 44 44 44 45 45 45 44 45 45 44 44 44 43 43 43 42 42 43 42 42 42 41 41 41 41 40 40 40 39 38 37 37
44 44 45 45 45 46 46 46 46 47 47 46 46 46 46 47 46 47 46 46 46 45 45 45 45 45 45 45 45 45 45 44 44 44 44 44 44 43 43 42 42 41 40
46 46 46 47 47 47 48 48 49 49 50 50 49 48 48 48 48 48 49 48 48 48 47 47 47 47 47 47 47 47 47 47 47 47 47 47 46 46 46 45 45 44 44
47 47 47 48 49 50 51 51 51 51 51 52 52 51 51 52 51 51 51 51 51 50 51 51 51 51 50 51 50 50 49 50 50 50 51 51 50 50 49 49 48 48 47
48 48 48 49 50 51 52 52 52 53 53 53 53 53 53 54 54 53 53 53 54 53 53 54 54 54 53 53 53 53 53 53 53 54 54 54 54 53 53 53 52 51 50
49 50 50 51 52 53 53 53 53 54 53 54 54 54 54 55 56 56 56 55 55 56 56 56 56 56 56 56 56 56 57 57 56 56 57 57 56 56 56 55 55 54 53
50 51 52 53 53 53 53 54 53 53 54 55 55 56 55 55 56 57 58 58 57 57 58 59 58 58 58 58 58 58 59 59 59 58 58 58 58 59 58 58 57 57 56
50 51 52 52 52 52 53 53 54 53 54 55 55 56 56 57 58 59 59 59 59 59 59 59 59 59 60 60 59 60 60 60 60 59 58 58 58 59 59 59 59 59 59
49 50 51 51 51 52 53 54 55 55 56 57 57 57 57 57 58 59 60 61 61 60 60 60 60 60 60 61 61 61 61 61 61 61 60 59 60 60 60 60 60 60 60
50 50 50 51 52 53 54 55 56 56 56 57 57 58 57 58 59 60 60 61 61 61 60 60 61 61 62 62 63 63 63 62 62 62 61 61 61 61 61 61 61 61 61
50 50 51 52 53 54 54 56 58 59 58 58 59 59 59 59 59 60 60 60 61 62 62 61 62 63 63 63 63 63 63 62 63 62 62 62 63 63 63 63 63 62 63
49 50 52 53 54 54 54 56 58 60 60 59 59 59 59 60 60 60 61 61 62 63 62 61 62 62 63 63 63 63 63 62 62 62 62 62 62 63 64 64 65 64 65
50 51 52 53 54 55 55 56 58 60 60 60 59 59 59 60 60 61 61 61 61 62 62 61 60 60 61 62 62 62 63 62 62 61 61 62 62 63 64 64 64 65 65
51 52 52 53 54 55 55 56 57 59 59 59 58 58 59 60 61 62 61 61 61 61 61 61 59 59 59 60 61 61 61 61 61 60 61 61 62 63 64 64 64 64 65
52 52 53 54 54 55 55 55 56 58 58 58 58 58 58 59 60 61 61 61 61 60 60 60 59 58 58 59 60 60 59 59 59 59 59 59 60 60 61 62 62 62 62
52 53 54 54 55 55 55 55 55 57 58 58 58 58 58 57 57 58 59 59 59 59 58 58 58 58 57 57 58 57 57 57 56 57 57 57 57 58 59 59 59 59 60
51 52 52 53 53 54 54 55 55 56 56 57 57 57 56 55 56 56 56 57 57 57 57 58 57 57 56 56 57 56 55 55 54 54 55 55 55 55 56 56 57 57 57
51 51 51 51 51 52 53 53 54 54 54 54 54 55 54 54 55 55 55 55 56 56 56 56 56 55 55 54 54 54 53 53 52 52 53 53 54 54 54 54 54 55 55
51 51 51 51 51 51 51 51 52 52 51 51 51 52 52 52 53 53 54 54 54 55 55 55 55 53 53 52 51 52 52 51 50 50 51 51 51 51 50 50 51 52 53
51 51 51 51 51 50 50 50 51 51 51 51 50 51 51 50 51 52 52 52 52 52 52 53 53 51 50 49 49 49 49 48 47 46 47 48 46 47 47 48 48 48 50
50 50 50 50 49 49 49 50 50 50 50 50 49 49 49 49 50 50 50 50 49 49 49 49 48 48 47 47 47 47 46 46 45 44 45 45 44 45 44 44 45 46 46
Wind_Direction
261 261 261 260 259 259 260 260 259 260 260 261 260 260 259 259 259 259 259 259 258 257 258 257 257 257 257 257 258 258 259 259 258 258 259 259 259 259 259 260 262 264 263
263 261 261 260 259 260 260 260 261 261 261 261 261 261 260 260 259 260 260 260 259 259 258 257 257 257 258 258 258 258 259 259 260 259 259 259 258 258 259 261 262 264 264
264 262 261 261 260 260 260 261 261 261 262 262 262 261 260 259 260 260 260 260 259 259 259 258 258 259 260 260 259 258 258 258 259 260 260 259 259 259 259 261 262 264 265
264 263 262 262 262 261 261 261 261 262 261 262 262 262 261 260 259 260 261 261 260 260 260 260 259 259 259 259 259 259 258 258 258 259 259 260 260 260 260 261 263 264 264
265 265 264 264 264 263 263 262 261 262 261 261 261 262 261 260 260 260 260 261 261 261 261 260 260 260 260 260 260 259 259 259 258 259 259 260 260 261 261 262 262 263 263
267 267 266 265 265 265 264 263 262 262 262 262 261 261 261 260 260 260 260 261 261 261 262 261 261 261 261 260 260 260 260 260 259 259 259 259 260 261 262 262 262 262 262
267 268 268 267 265 265 265 264 263 263 262 262 262 261 261 261 261 261 262 261 261 260 260 261 261 260 261 261 260 260 261 261 261 261 260 260 259 260 261 261 261 262 262
269 269 268 268 267 266 266 266 264 264 263 263 263 262 261 262 262 263 263 263 262 261 261 261 261 261 261 261 261 261 261 262 261 261 261 261 260 260 260 261 261 261 262
270 269 268 269 269 268 267 267 266 265 265 264 264 264 263 262 262 262 263 264 264 263 262 263 263 263 263 263 262 262 262 262 262 262 261 261 260 260 260 260 260 260 260
270 269 268 269 270 269 268 268 267 266 266 266 266 265 264 265 264 263 263 264 263 264 264 264 264 263 263 263 263 263 262 262 262 262 261 261 260 260 260 259 260 260 260
271 270 270 270 271 270 270 269 268 267 267 267 266 265 266 266 266 265 264 264 264 265 265 264 264 265 264 264 264 263 263 263 263 262 261 260 260 260 259 259 259 259 259
273 272 272 272 272 271 270 269 267 267 267 267 267 266 266 266 266 266 265 264 265 265 265 265 265 265 265 265 264 264 264 263 263 262 261 261 260 260 260 259 259 258 258
274 273 272 272 271 271 270 268 267 267 267 268 268 267 267 267 266 266 266 265 265 265 265 266 266 266 265 265 265 265 264 264 263 262 261 261 261 260 260 259 259 258 257
274 274 273 272 271 271 270 269 268 268 268 269 269 268 268 268 267 267 267 267 266 265 265 265 266 266 266 266 266 266 265 264 263 262 261 261 261 261 260 260 259 258 257
275 275 274 272 272 272 272 270 269 269 269 270 270 269 268 269 269 268 268 267 267 266 265 265 266 266 267 267 267 266 265 264 263 262 262 261 261 260 260 259 259 258 258
276 276 276 274 273 273 273 272 270 269 270 271 271 270 269 270 270 269 268 268 268 268 267 266 266 267 267 267 267 266 265 264 263 262 262 261 261 260 260 259 259 258 258
278 278 278 276 274 275 275 273 271 271 271 271 271 270 270 270 269 270 269 268 268 268 268 268 268 267 267 267 266 265 264 263 262 262 262 261 261 260 260 260 259 259 258
279 279 279 278 276 276 275 275 273 271 271 270 270 270 271 270 270 269 270 269 268 269 270 269 268 268 268 267 266 264 263 263 262 262 262 261 261 260 260 260 260 260 259
280 280 280 280 278 277 276 276 275 273 271 271 271 272 271 271 270 268 269 269 269 269 270 269 269 268 268 267 266 264 264 263 262 262 261 262 262 261 260 260 260 260 259
281 280 281 281 279 278 277 277 276 275 272 272 273 272 271 271 269 268 268 269 269 269 269 270 269 268 268 267 265 264 263 263 262 262 262 262 262 262 261 260 260 260 259
282 282 282 281 280 278 278 278 277 276 274 273 273 272 271 270 269 269 268 268 268 268 269 269 270 269 267 266 265 264 263 262 262 262 262 262 262 262 261 260 259 258 257
285 284 283 283 282 281 280 279 278 276 276 275 274 273 272 271 269 269 269 268 268 268 268 269 269 269 268 266 265 264 262 261 261 261 262 261 262 262 262 261 260 258 257
286 285 284 283 283 282 281 279 279 278 277 277 276 275 274 272 271 269 269 268 269 269 269 269 269 269 268 267 265 264 263 262 261 261 261 261 262 262 261 260 259 258 257
286 286 285 284 283 283 282 281 279 278 278 278 277 276 275 273 272 270 269 269 268 268 268 268 268 268 268 267 265 264 263 262 260 260 261 262 261 261 261 259 258 257 257
287 286 286 285 284 283 283 282 280 279 278 278 277 276 275 274 273 271 270 269 268 268 268 267 266 266 266 266 265 263 262 260 259 259 260 262 262 261 261 259 257 256 256
288 287 287 286 285 284 283 283 282 281 280 280 278 276 276 275 274 273 272 270 269 267 266 265 264 263 264 264 264 263 261 260 259 258 259 261 262 263 261 257 256 255 255
Height
5775 5776 5777 5778 5780 5781 5783 5784 5786 5787 5788 5789 5791 5792 5793 5794 5795 5797 5798 5799 5799 5800 5801 5802 5803 5804 5805 5806 5807 5808 5809 5809 5810 5812 5813 5814 5815 5816 5817 5817 5818 5819 5819
5766 5768 5769 5770 5771 5773 5775 5776 5778 5779 5780 5782 5783 5784 5785 5786 5788 5789 5790 5791 5792 5793 5794 5795 5796 5797 5798 5799 5800 5801 5802 5803 5804 5805 5806 5807 5808 5809 5810 5811 5812 5813 5813
5758 5759 5760 5761 5763 5764 5766 5767 5769 5770 5772 5773 5774 5775 5777 5778 5779 5780 5782 5783 5784 5785 5785 5786 5787 5788 5790 5791 5792 5793 5794 5795 5797 5798 5799 5800 5801 5802 5804 5804 5805 5806 5807
5749 5750 5751 5752 5753 5755 5756 5758 5759 5761 5762 5763 5764 5766 5767 5768 5770 5771 5772 5773 5774 5775 5776 5777 5778 5779 5781 5782 5783 5784 5785 5787 5788 5790 5791 5792 5793 5795 5796 5797 5798 5799 5799
5739 5740 5741 5742 5743 5744 5745 5747 5748 5750 5751 5753 5754 5755 5757 5758 5759 5761 5762 5763 5764 5765 5767 5768 5769 5770 5771 5772 5773 5775 5776 5777 5779 5781 5782 5783 5785 5786 5788 5789 5790 5791 5792
5729 5729 5730 5731 5732 5733 5734 5735 5737 5738 5739 5741 5743 5744 5745 5747 5748 5750 5751 5752 5753 5754 5755 5757 5758 5759 5760 5761 5762 5764 5766 5767 5769 5770 5772 5774 5775 5777 5778 5780 5781 5782 5783
5718 5718 5718 5719 5720 5721 5722 5723 5724 5725 5727 5728 5730 5732 5733 5734 5736 5738 5739 5740 5742 5743 5744 5745 5747 5748 5749 5750 5752 5753 5754 5756 5757 5759 5761 5763 5765 5766 5768 5769 5771 5772 5773
5706 5706 5706 5707 5707 5708 5709 5710 5711 5712 5713 5714 5716 5718 5721 5723 5724 5725 5726 5727 5729 5730 5732 5733 5734 5736 5737 5738 5739 5741 5742 5744 5745 5747 5749 5751 5753 5755 5756 5758 5760 5761 5763
5694 5694 5694 5694 5694 5695 5695 5696 5697 5698 5699 5700 5701 5703 5705 5708 5711 5713 5713 5714 5715 5717 5718 5719 5721 5722 5724 5725 5727 5728 5729 5730 5732 5734 5736 5737 5740 5742 5744 5746 5747 5749 5751
5681 5681 5681 5681 5681 5681 5681 5681 5682 5683 5684 5685 5686 5687 5689 5692 5694 5698 5700 5700 5701 5703 5704 5705 5706 5707 5709 5710 5712 5713 5715 5716 5717 5719 5721 5723 5725 5727 5730 5732 5734 5736 5738
5668 5668 5667 5667 5667 5667 5667 5667 5667 5668 5668 5670 5671 5672 5673 5675 5677 5679 5683 5685 5686 5687 5688 5689 5690 5691 5693 5694 5696 5697 5698 5700 5702 5703 5705 5707 5709 5712 5714 5716 5719 5721 5723
5655 5654 5653 5653 5652 5652 5652 5652 5652 5653 5653 5654 5655 5656 5657 5659 5661 5662 5664 5667 5669 5671 5671 5672 5673 5674 5675 5677 5678 5680 5681 5682 5684 5686 5688 5690 5692 5695 5697 5700 5702 5705 5708
5641 5640 5639 5638 5637 5637 5637 5637 5637 5638 5638 5639 5639 5640 5641 5642 5643 5644 5646 5648 5650 5653 5654 5655 5656 5657 5657 5659 5660 5661 5663 5664 5666 5668 5670 5672 5675 5677 5680 5682 5685 5688 5691
5627 5625 5624 5623 5622 5622 5622 5622 5622 5622 5622 5623 5623 5623 5624 5625 5626 5626 5627 5629 5631 5635 5637 5638 5638 5638 5639 5640 5641 5642 5644 5646 5647 5649 5652 5654 5656 5659 5661 5664 5667 5670 5673
5613 5611 5610 5608 5607 5607 5606 5606 5606 5606 5606 5606 5606 5606 5607 5608 5608 5608 5609 5609 5611 5614 5619 5621 5620 5620 5620 5621 5622 5623 5625 5626 5628 5630 5632 5635 5637 5640 5643 5646 5648 5651 5654
5599 5597 5595 5594 5593 5592 5591 5590 5590 5590 5590 5590 5589 5589 5590 5590 5590 5591 5591 5591 5591 5593 5597 5602 5601 5601 5601 5602 5602 5603 5605 5606 5608 5610 5613 5615 5618 5620 5623 5626 5629 5632 5635
5585 5583 5581 5579 5577 5576 5575 5574 5574 5573 5573 5573 5572 5572 5572 5572 5572 5572 5572 5573 5573 5574 5577 5581 5581 5581 5581 5582 5582 5583 5585 5587 5589 5591 5593 5595 5598 5600 5603 5606 5609 5612 5615
5571 5569 5566 5564 5562 5560 5559 5558 5557 5557 5556 5556 5555 5555 5555 5554 5554 5554 5554 5555 5555 5555 5556 5560 5562 5561 5561 5561 5562 5564 5565 5567 5570 5572 5573 5575 5578 5580 5583 5586 5588 5591 5594
5557 5554 5551 5549 5547 5544 5543 5542 5540 5540 5539 5538 5538 5537 5537 5536 5536 5536 5536 5536 5536 5537 5537 5539 5542 5542 5542 5542 5542 5544 5546 5548 5550 5552 5554 5556 5558 5561 5563 5566 5568 5571 5574
5542 5539 5536 5534 5531 5529 5527 5525 5524 5522 5522 5521 5520 5520 5519 5518 5517 5517 5517 5518 5518 5519 5519 5520 5522 5524 5524 5523 5523 5525 5528 5530 5532 5534 5535 5537 5539 5541 5543 5546 5549 5551 5553
5527 5524 5521 5518 5515 5513 5511 5509 5507 5506 5505 5504 5503 5502 5501 5500 5499 5499 5499 5500 5500 5501 5501 5502 5504 5505 5506 5506 5506 5507 5510 5512 5515 5515 5517 5520 5522 5524 5525 5527 5529 5531 5534
5512 5509 5506 5503 5500 5497 5494 5492 5490 5489 5488 5487 5486 5485 5484 5482 5482 5482 5482 5482 5482 5483 5484 5485 5486 5487 5489 5489 5489 5490 5492 5495 5499 5501 5500 5503 5503 5506 5507 5509 5511 5513 5516
5498 5494 5491 5488 5485 5482 5479 5476 5474 5473 5472 5470 5469 5468 5467 5466 5465 5465 5465 5465 5466 5466 5467 5467 5469 5470 5471 5473 5473 5475 5476 5478 5481 5483 5482 5486 5487 5489 5491 5492 5494 5496 5498
5484 5480 5476 5473 5470 5467 5463 5461 5459 5457 5456 5455 5453 5452 5451 5450 5448 5448 5448 5449 5450 5450 5451 5451 5453 5454 5454 5455 5456 5458 5459 5462 5465 5466 5466 5469 5471 5473 5475 5477 5478 5480 5482
5469 5465 5462 5458 5455 5452 5449 5446 5444 5442 5441 5439 5438 5436 5434 5434 5433 5432 5432 5433 5434 5435 5434 5435 5436 5437 5438 5439 5440 5441 5444 5446 5449 5452 5452 5453 5456 5458 5460 5462 5463 5465 5467
5454 5450 5447 5443 5440 5438 5435 5431 5428 5427 5426 5424 5423 5421 5419 5418 5417 5416 5416 5416 5418 5419 5419 5420 5421 5422 5423 5424 5425 5426 5428 5431 5434 5438 5439 5440 5442 5443 5446 5448 5449 5451 5453